This demonstration page uses our WeatherBlox Daily Observations layout. Learn more.

Hourly Observations for January 10, 2015

Temp ( °F °C ) Dew Point ( °F °C ) Humidity (%) Winds ( mph kmh ) Pressure ( in mb ) Visibility ( mi km ) Precip ( " mm )
12:15 am 00:15 Clear 13 -10.8 4 -15.5 69 69 S 9 15 30.45 1031 10 16.0934 0 0
12:35 am 00:35 Clear 11 -11.4 3 -16 69 69 S 8 13 30.45 1031 10 16.0934 0 0
12:55 am 00:55 Clear 12 -11.3 3 -16 69 69 S 6 9 30.45 1031 10 16.0934 0 0
1:15 am 01:15 Clear 11 -11.5 4 -15.8 71 71 S 9 15 30.42 1030 10 16.0934 0 0
1:35 am 01:35 Clear 12 -11.2 3 -16 68 68 S 8 13 30.42 1030 10 16.0934 0 0
1:55 am 01:55 Clear 12 -11.2 4 -15.8 69 69 S 6 9 30.42 1030 10 16.0934 0 0
2:15 am 02:15 Clear 12 -11 4 -15.7 69 69 S 8 13 30.39 1029 10 16.0934 0 0
2:35 am 02:35 Clear 13 -10.4 4 -15.5 67 67 S 9 15 30.36 1028 10 16.0934 0 0
2:55 am 02:55 Clear 14 -9.8 5 -15 66 66 S 10 17 30.36 1028 10 16.0934 0 0
3:15 am 03:15 Clear 14 -10 5 -15 67 67 S 8 13 30.33 1027 10 16.0934 0 0
3:35 am 03:35 Clear 13 -10.3 5 -15 69 69 S 9 15 30.33 1027 10 16.0934 0 0
3:55 am 03:55 Clear 13 -10.3 6 -14.5 72 72 S 10 17 30.33 1027 10 16.0934 0 0
4:15 am 04:15 Clear 14 -10.2 7 -14 74 74 S 12 19 30.33 1027 10 16.0934 0 0
4:35 am 04:35 Clear 15 -9.6 9 -13 77 77 S 13 20 30.3 1026 10 16.0934 0 0
4:55 am 04:55 Clear 15 -9.3 10 -12.5 78 78 S 13 20 30.3 1026 10 16.0934 0 0
5:15 am 05:15 Clear 17 -8.6 11 -11.5 80 80 SSW 13 20 30.27 1025 10 16.0934 0 0
5:35 am 05:35 Clear 18 -7.8 13 -10.8 79 79 S 17 28 30.24 1024 10 16.0934 0 0
5:55 am 05:55 Clear 18 -7.6 13 -10.6 79 79 SSW 14 22 30.24 1024 10 16.0934 0 0
6:15 am 06:15 Clear 19 -7.5 13 -10.5 79 79 SSW 14 22 30.24 1024 10 16.0934 0 0
6:35 am 06:35 Clear 19 -7.5 13 -10.5 79 79 SSW 16 26 30.21 1023 10 16.0934 0 0
6:55 am 06:55 Clear 18 -7.6 13 -10.6 79 79 SSW 13 20 30.21 1023 10 16.0934 0 0
7:15 am 07:15 Clear 19 -7.5 13 -10.6 79 79 SSW 14 22 30.21 1023 10 16.0934 0 0
7:35 am 07:35 Clear 19 -7.5 13 -10.6 79 79 SSW 13 20 30.21 1023 10 16.0934 0 0
7:55 am 07:55 Clear 19 -7 13 -10.5 76 76 SSW 12 19 30.21 1023 10 16.0934 0 0
8:15 am 08:15 Sunny 19 -7 13 -10.5 76 76 SSW 14 22 30.21 1023 10 16.0934 0 0
8:35 am 08:35 Sunny 20 -6.9 13 -10.5 76 76 SSW 15 24 30.21 1023 10 16.0934 0 0
8:55 am 08:55 Sunny 20 -6.5 13 -10.4 74 74 SSW 15 24 30.18 1022 10 16.0934 0 0
9:15 am 09:15 Sunny 22 -5.6 14 -10 71 71 S 16 26 30.18 1022 10 16.0934 0 0
9:35 am 09:35 Sunny 24 -4.6 15 -9.5 69 69 SSW 17 28 30.18 1022 10 16.0934 0 0
9:55 am 09:55 Sunny 26 -3.6 16 -9.1 66 66 SSW 17 28 30.18 1022 10 16.0934 0 0
10:35 am 10:35 Sunny 29 -1.6 18 -7.7 64 64 SW 18 30 30.15 1021 10 16.0934 0 0
10:55 am 10:55 Sunny 30 -1.1 18 -7.8 61 61 SSW 16 26 30.12 1020 10 16.0934 0 0
11:15 am 11:15 Sunny 31 -0.5 19 -7.1 61 61 SW 16 26 30.12 1020 10 16.0934 0 0
11:35 am 11:35 Sunny 32 0 20 -6.9 60 60 SSW 20 31 30.09 1019 10 16.0934 0 0
11:55 am 11:55 Sunny 33 0.5 20 -6.5 60 60 SW 18 30 30.09 1019 10 16.0934 0 0
12:15 pm 12:15 Sunny 34 1.2 21 -6 59 59 SW 16 26 30.06 1018 10 16.0934 0 0
12:35 pm 12:35 Sunny 36 2.3 22 -5.6 56 56 SW 15 24 30.09 1019 10 16.0934 0 0
12:55 pm 12:55 Sunny 37 2.8 22 -5.3 56 56 SW 14 22 30.03 1017 10 16.0934 0 0
1:15 pm 13:15 Sunny 38 3.2 23 -4.9 56 56 SW 13 20 30.03 1017 10 16.0934 0 0
1:35 pm 13:35 Sunny 39 3.9 24 -4.4 55 55 SW 10 17 30.03 1017 10 16.0934 0 0
1:55 pm 13:55 Sunny 40 4.4 24 -4.2 54 54 SW 8 13 30.03 1017 10 16.0934 0 0
2:15 pm 14:15 Sunny 40 4.4 25 -4.1 54 54 SW 9 15 30.03 1017 10 16.0934 0 0
2:35 pm 14:35 Sunny 38 3.6 24 -4.2 57 57 SW 7 11 30.03 1017 10 16.0934 0 0
2:55 pm 14:55 Sunny 39 3.7 25 -3.9 58 58 SW 8 13 30.03 1017 10 16.0934 0 0
3:15 pm 15:15 Sunny 38 3.4 25 -3.7 60 60 SSW 6 9 30.03 1017 10 16.0934 0 0
3:35 pm 15:35 Sunny 38 3.2 26 -3.6 61 61 SW 6 9 30.03 1017 10 16.0934 0 0
3:55 pm 15:55 Sunny 38 3.3 25 -3.9 60 60 SW 5 7 30.03 1017 10 16.0934 0 0
4:15 pm 16:15 Sunny 38 3.1 25 -4 60 60 WSW 5 7 30.03 1017 10 16.0934 0 0
4:35 pm 16:35 Sunny 37 3 25 -4 60 60 W 3 6 30.06 1018 10 16.0934 0 0
4:55 pm 16:55 Sunny 36 2.1 25 -3.9 65 65 W 3 6 30.09 1019 10 16.0934 0 0
5:15 pm 17:15 Sunny 35 1.5 24 -4.3 66 66 Calm 30.09 1019 10 16.0934 0 0
5:35 pm 17:35 Clear 33 0.6 25 -4 72 72 Calm 30.09 1019 10 16.0934 0 0
5:55 pm 17:55 Clear 31 -0.5 25 -3.9 78 78 Calm 30.09 1019 10 16.0934 0 0
6:15 pm 18:15 Clear 29 -1.4 23 -4.8 78 78 Calm 30.12 1020 10 16.0934 0 0
6:35 pm 18:35 Clear 30 -1.2 25 -4 82 82 NNE 6 9 30.12 1020 10 16.0934 0 0
6:55 pm 18:55 Clear 28 -2 24 -4.2 85 85 NNE 3 6 30.12 1020 10 16.0934 0 0
7:15 pm 19:15 Clear 28 -2 25 -3.8 88 88 NNE 5 7 30.12 1020 10 16.0934 0 0
7:35 pm 19:35 Clear 28 -2 25 -4.1 86 86 Calm 30.12 1020 10 16.0934 0 0
7:55 pm 19:55 Clear 27 -2.6 24 -4.3 88 88 NNE 3 6 30.12 1020 10 16.0934 0 0
8:15 pm 20:15 Clear 27 -2.6 24 -4.3 88 88 Calm 30.15 1021 10 16.0934 0 0
8:35 pm 20:35 Clear 26 -3.1 23 -4.9 88 88 Calm 30.15 1021 10 16.0934 0 0
8:55 pm 20:55 Clear 25 -3.8 23 -5.2 90 90 NE 3 6 30.18 1022 10 16.0934 0 0
9:15 pm 21:15 Clear 26 -3.3 23 -4.8 90 90 NNE 5 7 30.15 1021 10 16.0934 0 0
9:35 pm 21:35 Clear 25 -4 22 -5.7 88 88 NE 5 7 30.18 1022 10 16.0934 0 0
9:55 pm 21:55 Clear 24 -4.5 21 -5.9 90 90 NE 6 9 30.18 1022 10 16.0934 0 0
10:15 pm 22:15 Clear 23 -4.8 21 -6.1 91 91 ENE 7 11 30.18 1022 10 16.0934 0 0
10:35 pm 22:35 Clear 23 -5 21 -6.2 91 91 ENE 7 11 30.18 1022 10 16.0934 0 0
10:55 pm 22:55 Clear 23 -5 20 -6.4 90 90 ENE 7 11 30.18 1022 10 16.0934 0 0
11:15 pm 23:15 Clear 23 -5.1 20 -6.6 89 89 ENE 7 11 30.15 1021 10 16.0934 0 0
11:35 pm 23:35 Clear 24 -4.6 21 -6 90 90 ENE 8 13 30.15 1021 10 16.0934 0 0
11:55 pm 23:55 Clear 23 -4.8 21 -6.2 90 90 NE 7 11 30.15 1021 10 16.0934 0 0

Powered by AerisWeather